Location: ????????
(55.8351°N, 38.7040°E)
Time: 21:24:28
(UTC+00:00)

Cosmos 1805 - Pass Details

Date: 14 April 2024
Orbit: 490 x 494 km, 82.5° (Epoch: 22 May)

Event Time Altitude Azimuth Distance (km) Brightness Sun altitude
Rises 00:38:11 0° 348° (NNW) 2,588 7.2 -13.4°
Reaches altitude 10° 00:40:19 10° 350° (N) 1,699 6.2 -13.2°
Maximum altitude 00:44:02 77° 77° (ENE) 512 3.2 -12.8°
Drops below altitude 10° 00:47:43 10° 164° (SSE) 1,682 5.6 -12.4°
Sets 00:49:49 0° 166° (SSE) 2,558 6.5 -12.2°
